Year,Month,Day,Hour,Minute,Value (Times are PST for temperature in C)
2012,06,04,00,00,9.40
2012,06,04,00,01,9.40
2012,06,04,00,02,9.40
2012,06,04,00,03,9.40
2012,06,04,00,04,9.40
2012,06,04,00,05,9.40
2012,06,04,00,06,9.40
2012,06,04,00,07,9.40
2012,06,04,00,08,9.40
2012,06,04,00,09,9.40
2012,06,04,00,10,9.40
2012,06,04,00,11,9.30
2012,06,04,00,12,9.30
2012,06,04,00,13,9.30
2012,06,04,00,14,9.30
2012,06,04,00,15,9.30
2012,06,04,00,16,9.30
2012,06,04,00,17,9.30
2012,06,04,00,18,9.30
2012,06,04,00,19,9.30
2012,06,04,00,20,9.30
2012,06,04,00,21,9.20
2012,06,04,00,22,9.20
2012,06,04,00,23,9.20
2012,06,04,00,24,9.20
2012,06,04,00,25,9.10
2012,06,04,00,26,9.10
2012,06,04,00,27,9.10
2012,06,04,00,28,9.00
2012,06,04,00,29,9.00
2012,06,04,00,30,9.00
2012,06,04,00,31,8.90
2012,06,04,00,32,8.90
2012,06,04,00,33,8.90
2012,06,04,00,34,8.90
2012,06,04,00,35,8.80
2012,06,04,00,36,8.80
2012,06,04,00,37,8.80
2012,06,04,00,38,8.70
2012,06,04,00,39,8.70
2012,06,04,00,40,8.70
2012,06,04,00,41,8.70
2012,06,04,00,42,8.70
2012,06,04,00,43,8.60
2012,06,04,00,44,8.60
2012,06,04,00,45,8.60
2012,06,04,00,46,8.60
2012,06,04,00,47,8.50
2012,06,04,00,48,8.50
2012,06,04,00,49,8.50
2012,06,04,00,50,8.40
2012,06,04,00,51,8.40
2012,06,04,00,52,8.40
2012,06,04,00,53,8.30
2012,06,04,00,54,8.30
2012,06,04,00,55,8.30
2012,06,04,00,56,8.30
2012,06,04,00,57,8.20
2012,06,04,00,58,8.20
2012,06,04,00,59,8.10
2012,06,04,01,00,8.10
2012,06,04,01,01,8.10
2012,06,04,01,02,8.00
2012,06,04,01,03,8.00
2012,06,04,01,04,8.00
2012,06,04,01,05,7.90
2012,06,04,01,06,7.90
2012,06,04,01,07,7.90
2012,06,04,01,08,7.90
2012,06,04,01,09,7.80
2012,06,04,01,10,7.80
2012,06,04,01,11,7.80
2012,06,04,01,12,7.70
2012,06,04,01,13,7.70
2012,06,04,01,14,7.70
2012,06,04,01,15,7.70
2012,06,04,01,16,7.70
2012,06,04,01,17,7.70
2012,06,04,01,18,7.70
2012,06,04,01,19,7.60
2012,06,04,01,20,7.60
2012,06,04,01,21,7.60
2012,06,04,01,22,7.60
2012,06,04,01,23,7.60
2012,06,04,01,24,7.60
2012,06,04,01,25,7.60
2012,06,04,01,26,7.60
2012,06,04,01,27,7.50
2012,06,04,01,28,7.50
2012,06,04,01,29,7.50
2012,06,04,01,30,7.50
2012,06,04,01,31,7.40
2012,06,04,01,32,7.40
2012,06,04,01,33,7.40
2012,06,04,01,34,7.40
2012,06,04,01,35,7.40
2012,06,04,01,36,7.40
2012,06,04,01,37,7.40
2012,06,04,01,38,7.40
2012,06,04,01,39,7.30
2012,06,04,01,40,7.30
2012,06,04,01,41,7.30
2012,06,04,01,42,7.30
2012,06,04,01,43,7.30
2012,06,04,01,44,7.30
2012,06,04,01,45,7.30
2012,06,04,01,46,7.30
2012,06,04,01,47,7.20
2012,06,04,01,48,7.20
2012,06,04,01,49,7.20
2012,06,04,01,50,7.20
2012,06,04,01,51,7.20
2012,06,04,01,52,7.20
2012,06,04,01,53,7.20
2012,06,04,01,54,7.20
2012,06,04,01,55,7.20
2012,06,04,01,56,7.20
2012,06,04,01,57,7.20
2012,06,04,01,58,7.20
2012,06,04,01,59,7.30
2012,06,04,02,00,7.30
2012,06,04,02,01,7.30
2012,06,04,02,02,7.30
2012,06,04,02,03,7.20
2012,06,04,02,04,7.20
2012,06,04,02,05,7.20
2012,06,04,02,06,7.20
2012,06,04,02,07,7.20
2012,06,04,02,08,7.20
2012,06,04,02,09,7.20
2012,06,04,02,10,7.20
2012,06,04,02,11,7.10
2012,06,04,02,12,7.10
2012,06,04,02,13,7.10
2012,06,04,02,14,7.00
2012,06,04,02,15,7.00
2012,06,04,02,16,7.00
2012,06,04,02,17,7.00
2012,06,04,02,18,7.00
2012,06,04,02,19,7.00
2012,06,04,02,20,7.00
2012,06,04,02,21,7.00
2012,06,04,02,22,7.00
2012,06,04,02,23,7.00
2012,06,04,02,24,7.00
2012,06,04,02,25,7.10
2012,06,04,02,26,7.10
2012,06,04,02,27,7.10
2012,06,04,02,28,7.10
2012,06,04,02,29,7.10
2012,06,04,02,30,7.10
2012,06,04,02,31,7.10
2012,06,04,02,32,7.10
2012,06,04,02,33,7.10
2012,06,04,02,34,7.10
2012,06,04,02,35,7.10
2012,06,04,02,36,7.10
2012,06,04,02,37,7.10
2012,06,04,02,38,7.10
2012,06,04,02,39,7.10
2012,06,04,02,40,7.10
2012,06,04,02,41,7.10
2012,06,04,02,42,7.10
2012,06,04,02,43,7.10
2012,06,04,02,44,7.10
2012,06,04,02,45,7.10
2012,06,04,02,46,7.10
2012,06,04,02,47,7.10
2012,06,04,02,48,7.10
2012,06,04,02,49,7.10
2012,06,04,02,50,7.10
2012,06,04,02,51,7.10
2012,06,04,02,52,7.10
2012,06,04,02,53,7.10
2012,06,04,02,54,7.10
2012,06,04,02,55,7.20
2012,06,04,02,56,7.20
2012,06,04,02,57,7.20
2012,06,04,02,58,7.20
2012,06,04,02,59,7.20
2012,06,04,03,00,7.20
2012,06,04,03,01,7.20
2012,06,04,03,02,7.20
2012,06,04,03,03,7.20
2012,06,04,03,04,7.20
2012,06,04,03,05,7.20
2012,06,04,03,06,7.20
2012,06,04,03,07,7.20
2012,06,04,03,08,7.20
2012,06,04,03,09,7.20
2012,06,04,03,10,7.30
2012,06,04,03,11,7.30
2012,06,04,03,12,7.30
2012,06,04,03,13,7.30
2012,06,04,03,14,7.20
2012,06,04,03,15,7.20
2012,06,04,03,16,7.10
2012,06,04,03,17,7.10
2012,06,04,03,18,7.10
2012,06,04,03,19,7.00
2012,06,04,03,20,7.00
2012,06,04,03,21,6.90
2012,06,04,03,22,6.90
2012,06,04,03,23,6.80
2012,06,04,03,24,6.80
2012,06,04,03,25,6.80
2012,06,04,03,26,6.80
2012,06,04,03,27,6.80
2012,06,04,03,28,6.80
2012,06,04,03,29,6.80
2012,06,04,03,30,6.70
2012,06,04,03,31,6.70
2012,06,04,03,32,6.70
2012,06,04,03,33,6.70
2012,06,04,03,34,6.70
2012,06,04,03,35,6.70
2012,06,04,03,36,6.70
2012,06,04,03,37,6.70
2012,06,04,03,38,6.80
2012,06,04,03,39,6.80
2012,06,04,03,40,6.80
2012,06,04,03,41,6.80
2012,06,04,03,42,6.80
2012,06,04,03,43,6.80
2012,06,04,03,44,6.80
2012,06,04,03,45,6.80
2012,06,04,03,46,6.90
2012,06,04,03,47,6.90
2012,06,04,03,48,6.90
2012,06,04,03,49,6.90
2012,06,04,03,50,6.90
2012,06,04,03,51,6.90
2012,06,04,03,52,6.90
2012,06,04,03,53,6.90
2012,06,04,03,54,7.00
2012,06,04,03,55,7.00
2012,06,04,03,56,7.00
2012,06,04,03,57,7.10
2012,06,04,03,58,7.10
2012,06,04,03,59,7.00
2012,06,04,04,00,7.00
2012,06,04,04,01,7.00
2012,06,04,04,02,7.00
2012,06,04,04,03,6.90
2012,06,04,04,04,6.90
2012,06,04,04,05,6.90
2012,06,04,04,06,6.90
2012,06,04,04,07,6.90
2012,06,04,04,08,6.80
2012,06,04,04,09,6.80
2012,06,04,04,10,6.80
2012,06,04,04,11,6.80
2012,06,04,04,12,6.80
2012,06,04,04,13,6.80
2012,06,04,04,14,6.80
2012,06,04,04,15,6.80
2012,06,04,04,16,6.80
2012,06,04,04,17,6.80
2012,06,04,04,18,6.80
2012,06,04,04,19,6.80
2012,06,04,04,20,6.90
2012,06,04,04,21,6.80
2012,06,04,04,22,6.80
2012,06,04,04,23,6.80
2012,06,04,04,24,6.80
2012,06,04,04,25,6.80
2012,06,04,04,26,6.80
2012,06,04,04,27,6.80
2012,06,04,04,28,6.80
2012,06,04,04,29,6.80
2012,06,04,04,30,6.80
2012,06,04,04,31,6.70
2012,06,04,04,32,6.70
2012,06,04,04,33,6.70
2012,06,04,04,34,6.70
2012,06,04,04,35,6.70
2012,06,04,04,36,6.60
2012,06,04,04,37,6.60
2012,06,04,04,38,6.60
2012,06,04,04,39,6.60
2012,06,04,04,40,6.50
2012,06,04,04,41,6.50
2012,06,04,04,42,6.50
2012,06,04,04,43,6.50
2012,06,04,04,44,6.50
2012,06,04,04,45,6.50
2012,06,04,04,46,6.50
2012,06,04,04,47,6.50
2012,06,04,04,48,6.50
2012,06,04,04,49,6.50
2012,06,04,04,50,6.50
2012,06,04,04,51,6.50
2012,06,04,04,52,6.50
2012,06,04,04,53,6.50
2012,06,04,04,54,6.50
2012,06,04,04,55,6.50
2012,06,04,04,56,6.50
2012,06,04,04,57,6.50
2012,06,04,04,58,6.50
2012,06,04,04,59,6.60
2012,06,04,05,00,6.50
2012,06,04,05,01,6.60
2012,06,04,05,02,6.60
2012,06,04,05,03,6.50
2012,06,04,05,04,6.50
2012,06,04,05,05,6.50
2012,06,04,05,06,6.50
2012,06,04,05,07,6.50
2012,06,04,05,08,6.50
2012,06,04,05,09,6.50
2012,06,04,05,10,6.50
2012,06,04,05,11,6.50
2012,06,04,05,12,6.40
2012,06,04,05,13,6.40
2012,06,04,05,14,6.40
2012,06,04,05,15,6.40
2012,06,04,05,16,6.40
2012,06,04,05,17,6.40
2012,06,04,05,18,6.40
2012,06,04,05,19,6.40
2012,06,04,05,20,6.40
2012,06,04,05,21,6.40
2012,06,04,05,22,6.40
2012,06,04,05,23,6.40
2012,06,04,05,24,6.40
2012,06,04,05,25,6.40
2012,06,04,05,26,6.40
2012,06,04,05,27,6.40
2012,06,04,05,28,6.40
2012,06,04,05,29,6.40
2012,06,04,05,30,6.40
2012,06,04,05,31,6.40
2012,06,04,05,32,6.40
2012,06,04,05,33,6.40
2012,06,04,05,34,6.40
2012,06,04,05,35,6.40
2012,06,04,05,36,6.40
2012,06,04,05,37,6.40
2012,06,04,05,38,6.40
2012,06,04,05,39,6.40
2012,06,04,05,40,6.40
2012,06,04,05,41,6.30
2012,06,04,05,42,6.30
2012,06,04,05,43,6.30
2012,06,04,05,44,6.30
2012,06,04,05,45,6.30
2012,06,04,05,46,6.30
2012,06,04,05,47,6.30
2012,06,04,05,48,6.30
2012,06,04,05,49,6.30
2012,06,04,05,50,6.30
2012,06,04,05,51,6.30
2012,06,04,05,52,6.30
2012,06,04,05,53,6.30
2012,06,04,05,54,6.30
2012,06,04,05,55,6.30
2012,06,04,05,56,6.30
2012,06,04,05,57,6.30
2012,06,04,05,58,6.30
2012,06,04,05,59,6.30
2012,06,04,06,00,6.30
2012,06,04,06,01,6.30
2012,06,04,06,02,6.40
2012,06,04,06,03,6.40
2012,06,04,06,04,6.40
2012,06,04,06,05,6.40
2012,06,04,06,06,6.40
2012,06,04,06,07,6.40
2012,06,04,06,08,6.30
2012,06,04,06,09,6.30
2012,06,04,06,10,6.30
2012,06,04,06,11,6.20
2012,06,04,06,12,6.20
2012,06,04,06,13,6.20
2012,06,04,06,14,6.20
2012,06,04,06,15,6.20
2012,06,04,06,16,6.20
2012,06,04,06,17,6.20
2012,06,04,06,18,6.20
2012,06,04,06,19,6.20
2012,06,04,06,20,6.20
2012,06,04,06,21,6.20
2012,06,04,06,22,6.20
2012,06,04,06,23,6.20
2012,06,04,06,24,6.20
2012,06,04,06,25,6.20
2012,06,04,06,26,6.30
2012,06,04,06,27,6.30
2012,06,04,06,28,6.30
2012,06,04,06,29,6.30
2012,06,04,06,30,6.30
2012,06,04,06,31,6.30
2012,06,04,06,32,6.30
2012,06,04,06,33,6.40
2012,06,04,06,34,6.40
2012,06,04,06,35,6.40
2012,06,04,06,36,6.50
2012,06,04,06,37,6.50
2012,06,04,06,38,6.60
2012,06,04,06,39,6.60
2012,06,04,06,40,6.60
2012,06,04,06,41,6.60
2012,06,04,06,42,6.70
2012,06,04,06,43,6.70
2012,06,04,06,44,6.70
2012,06,04,06,45,6.70
2012,06,04,06,46,6.70
2012,06,04,06,47,6.70
2012,06,04,06,48,6.70
2012,06,04,06,49,6.70
2012,06,04,06,50,6.70
2012,06,04,06,51,6.70
2012,06,04,06,52,6.60
2012,06,04,06,53,6.60
2012,06,04,06,54,6.60
2012,06,04,06,55,6.60
2012,06,04,06,56,6.50
2012,06,04,06,57,6.50
2012,06,04,06,58,6.50
2012,06,04,06,59,6.50
2012,06,04,07,00,6.50
2012,06,04,07,01,6.50
2012,06,04,07,02,6.50
2012,06,04,07,03,6.50
2012,06,04,07,04,6.50
2012,06,04,07,05,6.50
2012,06,04,07,06,6.60
2012,06,04,07,07,6.60
2012,06,04,07,08,6.60
2012,06,04,07,09,6.60
2012,06,04,07,10,6.70
2012,06,04,07,11,6.70
2012,06,04,07,12,6.70
2012,06,04,07,13,6.70
2012,06,04,07,14,6.80
2012,06,04,07,15,6.80
2012,06,04,07,16,6.90
2012,06,04,07,17,6.90
2012,06,04,07,18,6.90
2012,06,04,07,19,7.00
2012,06,04,07,20,7.00
2012,06,04,07,21,7.10
2012,06,04,07,22,7.10
2012,06,04,07,23,7.20
2012,06,04,07,24,7.20
2012,06,04,07,25,7.20
2012,06,04,07,26,7.20
2012,06,04,07,27,7.20
2012,06,04,07,28,7.20
2012,06,04,07,29,7.20
2012,06,04,07,30,7.30
2012,06,04,07,31,7.30
2012,06,04,07,32,7.30
2012,06,04,07,33,7.30
2012,06,04,07,34,7.40
2012,06,04,07,35,7.50
2012,06,04,07,36,7.50
2012,06,04,07,37,7.60
2012,06,04,07,38,7.70
2012,06,04,07,39,7.80
2012,06,04,07,40,7.80
2012,06,04,07,41,7.80
2012,06,04,07,42,7.80
2012,06,04,07,43,7.90
2012,06,04,07,44,7.90
2012,06,04,07,45,7.90
2012,06,04,07,46,7.90
2012,06,04,07,47,7.90
2012,06,04,07,48,8.00
2012,06,04,07,49,8.00
2012,06,04,07,50,8.00
2012,06,04,07,51,8.00
2012,06,04,07,52,8.10
2012,06,04,07,53,8.10
2012,06,04,07,54,8.10
2012,06,04,07,55,8.10
2012,06,04,07,56,8.10
2012,06,04,07,57,8.10
2012,06,04,07,58,8.10
2012,06,04,07,59,8.20
2012,06,04,08,00,8.20
2012,06,04,08,01,8.20
2012,06,04,08,02,8.20
2012,06,04,08,03,8.20
2012,06,04,08,04,8.30
2012,06,04,08,05,8.30
2012,06,04,08,06,8.30
2012,06,04,08,07,8.30
2012,06,04,08,08,8.40
2012,06,04,08,09,8.40
2012,06,04,08,10,8.40
2012,06,04,08,11,8.50
2012,06,04,08,12,8.50
2012,06,04,08,13,8.50
2012,06,04,08,14,8.50
2012,06,04,08,15,8.60
2012,06,04,08,16,8.60
2012,06,04,08,17,8.60
2012,06,04,08,18,8.60
2012,06,04,08,19,8.70
2012,06,04,08,20,8.70
2012,06,04,08,21,8.70
2012,06,04,08,22,8.70
2012,06,04,08,23,8.70
2012,06,04,08,24,8.70
2012,06,04,08,25,8.70
2012,06,04,08,26,8.70
2012,06,04,08,27,8.80
2012,06,04,08,28,8.80
2012,06,04,08,29,8.80
2012,06,04,08,30,8.80
2012,06,04,08,31,8.80
2012,06,04,08,32,8.80
2012,06,04,08,33,8.80
2012,06,04,08,34,8.90
2012,06,04,08,35,8.90
2012,06,04,08,36,8.90
2012,06,04,08,37,9.00
2012,06,04,08,38,9.00
2012,06,04,08,39,9.10
2012,06,04,08,40,9.20
2012,06,04,08,41,9.30
2012,06,04,08,42,9.40
2012,06,04,08,43,9.50
2012,06,04,08,44,9.60
2012,06,04,08,45,9.70
2012,06,04,08,46,9.90
2012,06,04,08,47,10.00
2012,06,04,08,48,10.00
2012,06,04,08,49,10.10
2012,06,04,08,50,10.10
2012,06,04,08,51,10.20
2012,06,04,08,52,10.30
2012,06,04,08,53,10.40
2012,06,04,08,54,10.50
2012,06,04,08,55,10.60
2012,06,04,08,56,10.60
2012,06,04,08,57,10.70
2012,06,04,08,58,10.80
2012,06,04,08,59,10.80
2012,06,04,09,00,10.80
2012,06,04,09,01,10.80
2012,06,04,09,02,10.80
2012,06,04,09,03,10.80
2012,06,04,09,04,10.80
2012,06,04,09,05,10.80
2012,06,04,09,06,10.90
2012,06,04,09,07,10.90
2012,06,04,09,08,10.90
2012,06,04,09,09,10.90
2012,06,04,09,10,10.80
2012,06,04,09,11,10.80
2012,06,04,09,12,10.70
2012,06,04,09,13,10.70
2012,06,04,09,14,10.60
2012,06,04,09,15,10.70
2012,06,04,09,16,10.70
2012,06,04,09,17,10.70
2012,06,04,09,18,10.80
2012,06,04,09,19,10.90
2012,06,04,09,20,11.10
2012,06,04,09,21,11.20
2012,06,04,09,22,11.30
2012,06,04,09,23,11.40
2012,06,04,09,24,11.50
2012,06,04,09,25,11.60
2012,06,04,09,26,11.60
2012,06,04,09,27,11.70
2012,06,04,09,28,11.80
2012,06,04,09,29,11.90
2012,06,04,09,30,12.00
2012,06,04,09,31,12.00
2012,06,04,09,32,12.10
2012,06,04,09,33,12.10
2012,06,04,09,34,12.20
2012,06,04,09,35,12.20
2012,06,04,09,36,12.20
2012,06,04,09,37,12.10
2012,06,04,09,38,12.10
2012,06,04,09,39,12.00
2012,06,04,09,40,12.00
2012,06,04,09,41,12.00
2012,06,04,09,42,12.00
2012,06,04,09,43,12.10
2012,06,04,09,44,12.10
2012,06,04,09,45,12.10
2012,06,04,09,46,12.10
2012,06,04,09,47,12.10
2012,06,04,09,48,12.10
2012,06,04,09,49,12.10
2012,06,04,09,50,12.10
2012,06,04,09,51,12.10
2012,06,04,09,52,12.10
2012,06,04,09,53,12.10
2012,06,04,09,54,12.10
2012,06,04,09,55,12.10
2012,06,04,09,56,12.00
2012,06,04,09,57,12.00
2012,06,04,09,58,11.90
2012,06,04,09,59,11.80
2012,06,04,10,00,11.80
2012,06,04,10,01,11.70
2012,06,04,10,02,11.70
2012,06,04,10,03,11.70
2012,06,04,10,04,11.80
2012,06,04,10,05,11.80
2012,06,04,10,06,11.80
2012,06,04,10,07,11.90
2012,06,04,10,08,12.00
2012,06,04,10,09,12.10
2012,06,04,10,10,12.20
2012,06,04,10,11,12.20
2012,06,04,10,12,12.20
2012,06,04,10,13,12.30
2012,06,04,10,14,12.30
2012,06,04,10,15,12.30
2012,06,04,10,16,12.30
2012,06,04,10,17,12.30
2012,06,04,10,18,12.40
2012,06,04,10,19,12.30
2012,06,04,10,20,12.30
2012,06,04,10,21,12.30
2012,06,04,10,22,12.30
2012,06,04,10,23,12.30
2012,06,04,10,24,12.30
2012,06,04,10,25,12.20
2012,06,04,10,26,12.20
2012,06,04,10,27,12.30
2012,06,04,10,28,12.30
2012,06,04,10,29,12.30
2012,06,04,10,30,12.40
2012,06,04,10,31,12.50
2012,06,04,10,32,12.60
2012,06,04,10,33,12.70
2012,06,04,10,34,12.80
2012,06,04,10,35,12.90
2012,06,04,10,36,12.90
2012,06,04,10,37,12.90
2012,06,04,10,38,12.90
2012,06,04,10,39,12.90
2012,06,04,10,40,12.90
2012,06,04,10,41,13.00
2012,06,04,10,42,13.00
2012,06,04,10,43,13.00
2012,06,04,10,44,13.00
2012,06,04,10,45,13.00
2012,06,04,10,46,13.00
2012,06,04,10,47,13.20
2012,06,04,10,48,13.30
2012,06,04,10,49,13.40
2012,06,04,10,50,13.50
2012,06,04,10,51,13.60
2012,06,04,10,52,13.80
2012,06,04,10,53,13.90
2012,06,04,10,54,13.90
2012,06,04,10,55,14.00
2012,06,04,10,56,14.00
2012,06,04,10,57,14.00
2012,06,04,10,58,14.00
2012,06,04,10,59,14.00
2012,06,04,11,00,14.10
2012,06,04,11,01,14.10
2012,06,04,11,02,14.10
2012,06,04,11,03,14.10
2012,06,04,11,04,14.10
2012,06,04,11,05,14.10
2012,06,04,11,06,14.10
2012,06,04,11,07,14.20
2012,06,04,11,08,14.20
2012,06,04,11,09,14.10
2012,06,04,11,10,14.10
2012,06,04,11,11,14.10
2012,06,04,11,12,14.00
2012,06,04,11,13,14.00
2012,06,04,11,14,14.00
2012,06,04,11,15,14.00
2012,06,04,11,16,14.10
2012,06,04,11,17,14.20
2012,06,04,11,18,14.40
2012,06,04,11,19,14.50
2012,06,04,11,20,14.60
2012,06,04,11,21,14.70
2012,06,04,11,22,14.80
2012,06,04,11,23,15.00
2012,06,04,11,24,15.10
2012,06,04,11,25,15.20
2012,06,04,11,26,15.10
2012,06,04,11,27,15.10
2012,06,04,11,28,15.00
2012,06,04,11,29,15.00
2012,06,04,11,30,14.90
2012,06,04,11,31,14.90
2012,06,04,11,32,14.80
2012,06,04,11,33,14.80
2012,06,04,11,34,14.80
2012,06,04,11,35,14.70
2012,06,04,11,36,14.70
2012,06,04,11,37,14.70
2012,06,04,11,38,14.70
2012,06,04,11,39,14.70
2012,06,04,11,40,14.70
2012,06,04,11,41,14.70
2012,06,04,11,42,14.70
2012,06,04,11,43,14.80
2012,06,04,11,44,14.90
2012,06,04,11,45,15.00
2012,06,04,11,46,15.00
2012,06,04,11,47,15.20
2012,06,04,11,48,15.30
2012,06,04,11,49,15.50
2012,06,04,11,50,15.60
2012,06,04,11,51,15.70
2012,06,04,11,52,15.70
2012,06,04,11,53,15.70
2012,06,04,11,54,15.70
2012,06,04,11,55,15.70
2012,06,04,11,56,15.70
2012,06,04,11,57,15.60
2012,06,04,11,58,15.60
2012,06,04,11,59,15.60
2012,06,04,12,00,15.60
2012,06,04,12,01,15.50
2012,06,04,12,02,15.40
2012,06,04,12,03,15.40
2012,06,04,12,04,15.40
2012,06,04,12,05,15.40
2012,06,04,12,06,15.40
2012,06,04,12,07,15.50
2012,06,04,12,08,15.50
2012,06,04,12,09,15.60
2012,06,04,12,10,15.60
2012,06,04,12,11,15.70
2012,06,04,12,12,15.80
2012,06,04,12,13,15.80
2012,06,04,12,14,15.80
2012,06,04,12,15,15.80
2012,06,04,12,16,15.90
2012,06,04,12,17,15.90
2012,06,04,12,18,15.90
2012,06,04,12,19,16.00
2012,06,04,12,20,16.10
2012,06,04,12,21,16.20
2012,06,04,12,22,16.20
2012,06,04,12,23,16.20
2012,06,04,12,24,16.20
2012,06,04,12,25,16.20
2012,06,04,12,26,16.20
2012,06,04,12,27,16.20
2012,06,04,12,28,16.20
2012,06,04,12,29,16.20
2012,06,04,12,30,16.30
2012,06,04,12,31,16.40
2012,06,04,12,32,16.50
2012,06,04,12,33,16.50
2012,06,04,12,34,16.60
2012,06,04,12,35,16.60
2012,06,04,12,36,16.70
2012,06,04,12,37,16.90
2012,06,04,12,38,17.00
2012,06,04,12,39,17.20
2012,06,04,12,40,17.30
2012,06,04,12,41,17.50
2012,06,04,12,42,17.60
2012,06,04,12,43,17.70
2012,06,04,12,44,17.80
2012,06,04,12,45,17.70
2012,06,04,12,46,17.60
2012,06,04,12,47,17.50
2012,06,04,12,48,17.50
2012,06,04,12,49,17.40
2012,06,04,12,50,17.40
2012,06,04,12,51,17.40
2012,06,04,12,52,17.30
2012,06,04,12,53,17.20
2012,06,04,12,54,17.20
2012,06,04,12,55,17.20
2012,06,04,12,56,17.20
2012,06,04,12,57,17.20
2012,06,04,12,58,17.20
2012,06,04,12,59,17.20
2012,06,04,13,00,17.30
2012,06,04,13,01,17.40
2012,06,04,13,02,17.50
2012,06,04,13,03,17.70
2012,06,04,13,04,17.70
2012,06,04,13,05,17.70
2012,06,04,13,06,17.60
2012,06,04,13,07,17.50
2012,06,04,13,08,17.50
2012,06,04,13,09,17.60
2012,06,04,13,10,17.70
2012,06,04,13,11,17.80
2012,06,04,13,12,17.90
2012,06,04,13,13,17.90
2012,06,04,13,14,17.80
2012,06,04,13,15,17.60
2012,06,04,13,16,17.50
2012,06,04,13,17,17.40
2012,06,04,13,18,17.30
2012,06,04,13,19,17.40
2012,06,04,13,20,17.60
2012,06,04,13,21,17.70
2012,06,04,13,22,18.00
2012,06,04,13,23,18.30
2012,06,04,13,24,18.40
2012,06,04,13,25,18.40
2012,06,04,13,26,18.30
2012,06,04,13,27,18.30
2012,06,04,13,28,18.30
2012,06,04,13,29,18.20
2012,06,04,13,30,18.30
2012,06,04,13,31,18.40
2012,06,04,13,32,18.50
2012,06,04,13,33,18.50
2012,06,04,13,34,18.50
2012,06,04,13,35,18.40
2012,06,04,13,36,18.30
2012,06,04,13,37,18.20
2012,06,04,13,38,18.10
2012,06,04,13,39,17.90
2012,06,04,13,40,17.80
2012,06,04,13,41,17.60
2012,06,04,13,42,17.40
2012,06,04,13,43,17.30
2012,06,04,13,44,17.20
2012,06,04,13,45,17.10
2012,06,04,13,46,17.10
2012,06,04,13,47,17.10
2012,06,04,13,48,17.00
2012,06,04,13,49,16.90
2012,06,04,13,50,16.90
2012,06,04,13,51,16.90
2012,06,04,13,52,16.90
2012,06,04,13,53,16.80
2012,06,04,13,54,16.80
2012,06,04,13,55,16.80
2012,06,04,13,56,16.80
2012,06,04,13,57,16.80
2012,06,04,13,58,16.80
2012,06,04,13,59,16.80
2012,06,04,14,00,16.70
2012,06,04,14,01,16.60
2012,06,04,14,02,16.60
2012,06,04,14,03,16.50
2012,06,04,14,04,16.50
2012,06,04,14,05,16.50
2012,06,04,14,06,16.40
2012,06,04,14,07,16.40
2012,06,04,14,08,16.30
2012,06,04,14,09,16.20
2012,06,04,14,10,16.20
2012,06,04,14,11,16.20
2012,06,04,14,12,16.10
2012,06,04,14,13,16.10
2012,06,04,14,14,16.10
2012,06,04,14,15,16.00
2012,06,04,14,16,15.90
2012,06,04,14,17,15.80
2012,06,04,14,18,15.80
2012,06,04,14,19,15.70
2012,06,04,14,20,15.70
2012,06,04,14,21,15.70
2012,06,04,14,22,15.70
2012,06,04,14,23,15.70
2012,06,04,14,24,15.70
2012,06,04,14,25,15.70
2012,06,04,14,26,15.70
2012,06,04,14,27,15.70
2012,06,04,14,28,15.60
2012,06,04,14,29,15.60
2012,06,04,14,30,15.60
2012,06,04,14,31,15.60
2012,06,04,14,32,15.50
2012,06,04,14,33,15.50
2012,06,04,14,34,15.40
2012,06,04,14,35,15.30
2012,06,04,14,36,15.30
2012,06,04,14,37,15.20
2012,06,04,14,38,15.20
2012,06,04,14,39,15.20
2012,06,04,14,40,15.20
2012,06,04,14,41,15.20
2012,06,04,14,42,15.20
2012,06,04,14,43,15.10
2012,06,04,14,44,15.10
2012,06,04,14,45,15.00
2012,06,04,14,46,15.00
2012,06,04,14,47,15.00
2012,06,04,14,48,14.90
2012,06,04,14,49,14.80
2012,06,04,14,50,14.70
2012,06,04,14,51,14.70
2012,06,04,14,52,14.60
2012,06,04,14,53,14.60
2012,06,04,14,54,14.50
2012,06,04,14,55,14.50
2012,06,04,14,56,14.40
2012,06,04,14,57,14.40
2012,06,04,14,58,14.40
2012,06,04,14,59,14.40
2012,06,04,15,00,14.40
2012,06,04,15,01,14.40
2012,06,04,15,02,14.40
2012,06,04,15,03,14.40
2012,06,04,15,04,14.40
2012,06,04,15,05,14.40
2012,06,04,15,06,14.30
2012,06,04,15,07,14.30
2012,06,04,15,08,14.30
2012,06,04,15,09,14.30
2012,06,04,15,10,14.20
2012,06,04,15,11,14.20
2012,06,04,15,12,14.20
2012,06,04,15,13,14.10
2012,06,04,15,14,14.10
2012,06,04,15,15,14.10
2012,06,04,15,16,14.00
2012,06,04,15,17,14.00
2012,06,04,15,18,14.00
2012,06,04,15,19,13.90
2012,06,04,15,20,13.90
2012,06,04,15,21,13.80
2012,06,04,15,22,13.80
2012,06,04,15,23,13.80
2012,06,04,15,24,13.70
2012,06,04,15,25,13.70
2012,06,04,15,26,13.70
2012,06,04,15,27,13.70
2012,06,04,15,28,13.80
2012,06,04,15,29,13.80
2012,06,04,15,30,13.80
2012,06,04,15,31,13.80
2012,06,04,15,32,13.90
2012,06,04,15,33,13.90
2012,06,04,15,34,14.00
2012,06,04,15,35,14.00
2012,06,04,15,36,14.10
2012,06,04,15,37,14.10
2012,06,04,15,38,14.10
2012,06,04,15,39,14.20
2012,06,04,15,40,14.20
2012,06,04,15,41,14.20
2012,06,04,15,42,14.30
2012,06,04,15,43,14.30
2012,06,04,15,44,14.30
2012,06,04,15,45,14.30
2012,06,04,15,46,14.30
2012,06,04,15,47,14.30
2012,06,04,15,48,14.30
2012,06,04,15,49,14.30
2012,06,04,15,50,14.30
2012,06,04,15,51,14.30
2012,06,04,15,52,14.30
2012,06,04,15,53,14.20
2012,06,04,15,54,14.10
2012,06,04,15,55,14.10
2012,06,04,15,56,14.00
2012,06,04,15,57,14.00
2012,06,04,15,58,13.90
2012,06,04,15,59,13.90
2012,06,04,16,00,13.90
2012,06,04,16,01,13.90
2012,06,04,16,02,13.90
2012,06,04,16,03,13.90
2012,06,04,16,04,13.80
2012,06,04,16,05,13.80
2012,06,04,16,06,13.70
2012,06,04,16,07,13.60
2012,06,04,16,08,13.50
2012,06,04,16,09,13.40
2012,06,04,16,10,13.40
2012,06,04,16,11,13.40
2012,06,04,16,12,13.40
2012,06,04,16,13,13.30
2012,06,04,16,14,13.30
2012,06,04,16,15,13.30
2012,06,04,16,16,13.20
2012,06,04,16,17,13.20
2012,06,04,16,18,13.20
2012,06,04,16,19,13.20
2012,06,04,16,20,13.20
2012,06,04,16,21,13.20
2012,06,04,16,22,13.20
2012,06,04,16,23,13.20
2012,06,04,16,24,13.20
2012,06,04,16,25,13.30
2012,06,04,16,26,13.30
2012,06,04,16,27,13.30
2012,06,04,16,28,13.30
2012,06,04,16,29,13.30
2012,06,04,16,30,13.40
2012,06,04,16,31,13.40
2012,06,04,16,32,13.50
2012,06,04,16,33,13.50
2012,06,04,16,34,13.50
2012,06,04,16,35,13.50
2012,06,04,16,36,13.50
2012,06,04,16,37,13.50
2012,06,04,16,38,13.50
2012,06,04,16,39,13.50
2012,06,04,16,40,13.50
2012,06,04,16,41,13.50
2012,06,04,16,42,13.60
2012,06,04,16,43,13.60
2012,06,04,16,44,13.60
2012,06,04,16,45,13.60
2012,06,04,16,46,13.50
2012,06,04,16,47,13.50
2012,06,04,16,48,13.50
2012,06,04,16,49,13.50
2012,06,04,16,50,13.40
2012,06,04,16,51,13.40
2012,06,04,16,52,13.40
2012,06,04,16,53,13.40
2012,06,04,16,54,13.30
2012,06,04,16,55,13.30
2012,06,04,16,56,13.20
2012,06,04,16,57,13.10
2012,06,04,16,58,13.00
2012,06,04,16,59,13.00
2012,06,04,17,00,12.90
2012,06,04,17,01,12.80
2012,06,04,17,02,12.80
2012,06,04,17,03,12.80
2012,06,04,17,04,12.70
2012,06,04,17,05,12.70
2012,06,04,17,06,12.70
2012,06,04,17,07,12.70
2012,06,04,17,08,12.70
2012,06,04,17,09,12.70
2012,06,04,17,10,12.70
2012,06,04,17,11,12.70
2012,06,04,17,12,12.70
2012,06,04,17,13,12.70
2012,06,04,17,14,12.70
2012,06,04,17,15,12.70
2012,06,04,17,16,12.70
2012,06,04,17,17,12.70
2012,06,04,17,18,12.70
2012,06,04,17,19,12.70
2012,06,04,17,20,12.70
2012,06,04,17,21,12.70
2012,06,04,17,22,12.70
2012,06,04,17,23,12.70
2012,06,04,17,24,12.70
2012,06,04,17,25,12.70
2012,06,04,17,26,12.70
2012,06,04,17,27,12.60
2012,06,04,17,28,12.60
2012,06,04,17,29,12.60
2012,06,04,17,30,12.60
2012,06,04,17,31,12.60
2012,06,04,17,32,12.60
2012,06,04,17,33,12.50
2012,06,04,17,34,12.50
2012,06,04,17,35,12.50
2012,06,04,17,36,12.50
2012,06,04,17,37,12.50
2012,06,04,17,38,12.40
2012,06,04,17,39,12.50
2012,06,04,17,40,12.50
2012,06,04,17,41,12.40
2012,06,04,17,42,12.50